Weather History for KLWD - May, 2013

Change the Weather History Date:

Wednesday, May 1, 2013

  Actual Average Record
Temperature  
Mean Temperature 53 °F 56 °F  
Max Temperature 65 °F 67 °F 89 °F (1968)
Min Temperature 41 °F 46 °F 30 °F (1966)
Degree Days  
Heating Degree Days 12 9  
Month to date heating degree days 12 9  
Since 1 July heating degree days 5892 5904  
Cooling Degree Days 0 0  
Month to date cooling degree days 0 0  
Year to date cooling degree days 12 7  
Growing Degree Days 2 (Base 50)    
Moisture  
Dew Point 42 °F    
Average Humidity 64    
Maximum Humidity 76    
Minimum Humidity 52    
Precipitation  
Precipitation 0.00 in 0.17 in 1.59 in (1973)
Month to date precipitation 0.00 0.17  
Sea Level Pressure  
Sea Level Pressure 30.08 in    
Wind  
Wind Speed 19 mph (NNE)    
Max Wind Speed 37 mph    
Max Gust Speed 46 mph    
Visibility 10 miles    
Events      
T = Trace of Precipitation, MM = Missing Value Source: NWS Daily Summary

Daily Weather History Graph

Daily Weather History Graph

Search for Another Location

Airport or City:

Trip Planner

Search our weather history database for the weather conditions in past years. The results will help you decide how hot, cold, wet, or windy it might be!

Date:

Astronomy

May. 01, 2013 Rise Set
Actual Time 6:14 AM CDT 8:11 PM CDT
Civil Twilight 5:44 AM CDT 8:41 PM CDT
Nautical Twilight 5:08 AM CDT 9:18 PM CDT
Astronomical Twilight 4:29 AM CDT 9:57 PM CDT
Moon 1:22 AM CDT (5/1) 11:53 AM CDT (5/1)
Length of Visible Light 14h 57m
Length of Day
13h 57m
Waning Gibbous, 59% of the Moon is Illuminated
May 1
Waning Gibbous
May 2
Last Quarter
May 9
New
May 17
First Quarter
May 24
Full

Hourly Weather History & Observations

Time (CDT) Temp. Windchill Dew Point Humidity Pressure Visibility Wind Dir Wind Speed Gust Speed Precip Events Conditions
12:53 AM 64.9 °F - 48.9 °F 56% 29.83 in 10.0 mi South 8.1 mph - N/A   Clear
1:53 AM 64.0 °F - 48.9 °F 58% 29.86 in 10.0 mi South 5.8 mph - N/A   Clear
2:53 AM 60.1 °F - 48.9 °F 67% 29.87 in 10.0 mi North 6.9 mph - N/A   Clear
3:53 AM 57.0 °F - 46.0 °F 67% 29.91 in 10.0 mi North 10.4 mph - N/A   Clear
4:53 AM 55.0 °F - 45.0 °F 69% 29.95 in 10.0 mi NNE 17.3 mph - N/A   Clear
5:53 AM 53.1 °F - 45.0 °F 74% 29.98 in 10.0 mi NNE 15.0 mph - N/A   Clear
6:53 AM 53.1 °F - 44.1 °F 71% 30.01 in 10.0 mi NNE 15.0 mph 24.2 mph N/A   Clear
7:53 AM 54.0 °F - 42.1 °F 64% 30.04 in 10.0 mi NNE 19.6 mph 28.8 mph N/A   Partly Cloudy
8:53 AM 55.9 °F - 43.0 °F 62% 30.05 in 10.0 mi NNE 16.1 mph 26.5 mph N/A   Mostly Cloudy
9:53 AM 55.9 °F - 44.1 °F 64% 30.06 in 10.0 mi NNE 17.3 mph 26.5 mph N/A   Mostly Cloudy
10:53 AM 60.1 °F - 45.0 °F 57% 30.07 in 10.0 mi NNE 19.6 mph 26.5 mph N/A   Mostly Cloudy
11:53 AM 61.0 °F - 46.0 °F 58% 30.08 in 10.0 mi NE 16.1 mph 24.2 mph N/A   Mostly Cloudy
12:53 PM 61.0 °F - 46.0 °F 58% 30.09 in 10.0 mi NNE 16.1 mph 25.3 mph N/A   Mostly Cloudy
1:53 PM 61.0 °F - 45.0 °F 56% 30.09 in 10.0 mi NNE 20.7 mph 28.8 mph N/A   Overcast
2:53 PM 61.0 °F - 45.0 °F 56% 30.10 in 10.0 mi NNE 20.7 mph 26.5 mph N/A   Overcast
3:53 PM 62.1 °F - 45.0 °F 53% 30.11 in 10.0 mi North 18.4 mph 26.5 mph N/A   Mostly Cloudy
4:53 PM 57.9 °F - 44.1 °F 60% 30.12 in 10.0 mi North 24.2 mph 32.2 mph N/A   Mostly Cloudy
5:53 PM 52.0 °F - 41.0 °F 66% 30.14 in 10.0 mi North 24.2 mph 32.2 mph N/A   Mostly Cloudy
6:53 PM 45.0 °F 36.2 °F 37.9 °F 76% 30.16 in 10.0 mi North 24.2 mph 36.8 mph N/A   Overcast
7:15 PM 44.6 °F 35.5 °F 37.4 °F 76% 30.16 in 10.0 mi North 25.3 mph 34.5 mph N/A   Overcast
7:53 PM 42.1 °F 32.6 °F 35.1 °F 76% 30.19 in 10.0 mi North 23.0 mph 38.0 mph N/A   Overcast
8:53 PM 43.0 °F 33.8 °F 34.0 °F 71% 30.21 in 10.0 mi NNE 23.0 mph 38.0 mph N/A   Overcast
9:21 PM 42.8 °F 33.5 °F 33.8 °F 70% 30.20 in 10.0 mi NNE 23.0 mph 39.1 mph N/A   Overcast
9:31 PM 42.8 °F 33.8 °F 33.8 °F 70% 30.19 in 10.0 mi NNE 21.9 mph 34.5 mph N/A   Overcast
9:53 PM 43.0 °F 34.5 °F 35.1 °F 74% 30.23 in 10.0 mi NNE 19.6 mph 36.8 mph N/A   Overcast
10:53 PM 41.0 °F 31.1 °F 34.0 °F 76% 30.25 in 10.0 mi North 23.0 mph 33.4 mph N/A   Overcast
11:53 PM 42.1 °F 31.5 °F 34.0 °F 73% 30.22 in 10.0 mi North 28.8 mph 44.9 mph N/A   Overcast